Regional Weather Roundup
Issued by NWS

Home | Current Version | Previous Version | Text Only | Print | Product List | Glossary On
Versions: 1 2 3 4 5 6 7 8 9 10 11 12 13 14 15 16 17 18 19 20 21 22 23 24 25 26 27 28 29 30 31 32 33 34 35 36 37 38 39 40 41 42 43 44 45 46 47 48 49 50
000
ASUS43 KBIS 301220
RWRND

NORTH DAKOTA REGIONAL WEATHER ROUNDUP
NATIONAL WEATHER SERVICE BISMARCK ND
700 AM CDT THU OCT 30 2014

NOTE: "FAIR" INDICATES FEW OR NO CLOUDS BELOW 12,000 FEET WITH NO
SIGNIFICANT WEATHER AND/OR OBSTRUCTIONS TO VISIBILITY.


NDZ001>003-009>011-017-301300-
NORTHWEST NORTH DAKOTA

CITY           SKY/WX    TMP DP  RH WIND       PRES   REMARKS
WILLISTON      CLOUDY    37  32  82 NW9       30.27R
6HR MIN TEMP:  34; 6HR MAX TEMP:  37;

MINOT          CLOUDY    30  28  92 N12       30.25R
MINOT AFB      CLOUDY    31  30  99 N9        30.25R
$$

NDZ018>021-031>035-040>046-301300-
SOUTHWEST NORTH DAKOTA

CITY           SKY/WX    TMP DP  RH WIND       PRES   REMARKS
BISMARCK       CLEAR     34  32  92 N10       30.18R
6HR MIN TEMP:  34; 6HR MAX TEMP:  39;

DICKINSON      CLOUDY    34  32  92 NW12      30.21R FOG
GARRISON         N/A     31  29  92 N9        30.21R
6HR MIN TEMP:  31; 6HR MAX TEMP:  35;

HETTINGER ARPT CLEAR     33  30  88 NW13      30.20R
$$

NDZ004>008-012>016-024-026-027-054-301300-
NORTHEAST NORTH DAKOTA

CITY           SKY/WX    TMP DP  RH WIND       PRES   REMARKS
GRAND FORKS    MOCLDY    30  28  92 NW10      30.14R
GRND FRKS AFB  CLEAR     29  29  99 N8        30.15R
DEVILS LAKE    MOCLDY    30  23  74 N14       30.17R WCI  20
$$

NDZ022-023-025-028>030-036>039-047>053-301300-
SOUTHEAST NORTH DAKOTA

CITY           SKY/WX    TMP DP  RH WIND       PRES   REMARKS
FARGO          CLOUDY    40  38  93 N8        30.07R FOG
6HR MIN TEMP:  40; 6HR MAX TEMP:  41; 6HR PCP:  0.04;

JAMESTOWN      CLOUDY    35  34  96 N15       30.10R
$$




USA.gov is the U.S. government's official web portal to all federal, state and local government web resources and services.